{"data":{"norad_id":63802,"intl_designator":"2025-091AC","name":"STARLINK-33975","alt_names":[],"object_type":"PAYLOAD","status":"ACTIVE","operator":null,"country":"US","launch_date":"2025-05-02","launch_site_code":"AFETR","launch_vehicle":null,"mission":null,"orbit_class":"UNKNOWN","rcs_meters":null,"size_class":null,"mass_kg":null,"dimensions":null,"purposes":["comms"],"wikipedia_slug":null,"has_3d_model":false,"image_url":null,"decayed_at":null,"tle_current":{"epoch":"2026-09-20T15:48:08.758080Z","epoch_age_seconds":136001,"freshness":"FRESH","line1":"1 63802U 25091AC  26263.65843470  .00009224  00000+0  34429-3 0  9993","line2":"2 63802  43.0024  31.1375 0000737 276.5724  83.5044 15.27582267 78839","mean_motion":15.27582267,"eccentricity":7.37e-5,"inclination_deg":43.0024,"raan_deg":31.1375,"arg_perigee_deg":276.5724,"mean_anomaly_deg":83.5044,"bstar":0.00034429,"rev_number":7883,"period_min":94.266608817606,"perigee_km":482.53663891951,"apogee_km":483.54797674949,"semimajor_km":6861.1793078345,"source":"CELESTRAK","updated_at":"2026-09-21T09:00:35.103217Z"}}}